Time,TemperatureF,DewpointF,PressureIn,WindDirection,WindDirectionDegrees,WindSpeedMPH,WindSpeedGustMPH,Humidity,HourlyPrecipIn,Conditions,Clouds,dailyrainin,SoftwareType,DateUTC
2013-06-08 00:07:00,58.6,54.0,29.81,NW,323,1.0,4.0,85,0.00,,,0.00,weatherlink.com 1.10,2013-06-08 04:07:00,
2013-06-08 00:22:00,58.1,54.0,29.82,NNW,335,3.0,6.0,85,0.00,,,0.00,weatherlink.com 1.10,2013-06-08 04:22:00,
2013-06-08 00:37:00,57.8,54.0,29.82,NNW,340,1.0,4.0,86,0.00,,,0.00,weatherlink.com 1.10,2013-06-08 04:37:00,
2013-06-08 00:52:00,57.5,53.0,29.83,North,1,1.0,6.0,86,0.00,,,0.00,weatherlink.com 1.10,2013-06-08 04:52:00,
2013-06-08 01:07:00,57.3,53.0,29.83,WNW,288,2.0,6.0,86,0.00,,,0.00,weatherlink.com 1.10,2013-06-08 05:07:00,
2013-06-08 01:22:00,57.2,53.0,29.83,NNW,340,1.0,2.0,87,0.00,,,0.00,weatherlink.com 1.10,2013-06-08 05:22:00,
2013-06-08 01:37:00,57.2,53.0,29.83,WNW,297,2.0,5.0,87,0.00,,,0.00,weatherlink.com 1.10,2013-06-08 05:37:00,
2013-06-08 01:52:00,57.1,53.0,29.83,NNW,333,4.0,5.0,87,0.00,,,0.00,weatherlink.com 1.10,2013-06-08 05:52:00,
2013-06-08 02:07:00,57.0,53.0,29.83,NNW,334,0.0,4.0,86,0.00,,,0.00,weatherlink.com 1.10,2013-06-08 06:07:00,
2013-06-08 02:22:00,57.0,53.0,29.83,NNW,328,0.0,5.0,87,0.00,,,0.00,weatherlink.com 1.10,2013-06-08 06:22:00,
2013-06-08 02:37:00,56.8,53.0,29.83,NNW,342,2.0,4.0,87,0.00,,,0.00,weatherlink.com 1.10,2013-06-08 06:37:00,
2013-06-08 02:52:00,56.7,53.0,29.83,WNW,300,3.0,4.0,87,0.00,,,0.00,weatherlink.com 1.10,2013-06-08 06:52:00,
2013-06-08 03:07:00,56.6,53.0,29.84,NNW,329,0.0,2.0,88,0.00,,,0.00,weatherlink.com 1.10,2013-06-08 07:07:00,
2013-06-08 03:22:00,56.6,53.0,29.84,WNW,294,0.0,2.0,88,0.00,,,0.00,weatherlink.com 1.10,2013-06-08 07:22:00,
2013-06-08 03:37:00,56.7,53.0,29.84,North,358,0.0,3.0,87,0.00,,,0.00,weatherlink.com 1.10,2013-06-08 07:37:00,
2013-06-08 03:52:00,56.8,53.0,29.84,West,263,0.0,1.0,87,0.00,,,0.00,weatherlink.com 1.10,2013-06-08 07:52:00,
2013-06-08 04:07:00,56.9,53.0,29.84,NW,319,0.0,2.0,87,0.00,,,0.00,weatherlink.com 1.10,2013-06-08 08:07:00,
2013-06-08 04:22:00,57.0,53.0,29.84,NW,310,0.0,4.0,86,0.00,,,0.00,weatherlink.com 1.10,2013-06-08 08:22:00,
2013-06-08 04:37:00,57.0,53.0,29.85,NNW,342,0.0,3.0,86,0.00,,,0.00,weatherlink.com 1.10,2013-06-08 08:37:00,
2013-06-08 04:52:00,57.0,53.0,29.85,West,271,0.0,3.0,86,0.00,,,0.00,weatherlink.com 1.10,2013-06-08 08:52:00,
2013-06-08 05:07:00,57.0,53.0,29.86,NW,321,1.0,1.0,87,0.00,,,0.00,weatherlink.com 1.10,2013-06-08 09:07:00,
2013-06-08 05:22:00,57.0,53.0,29.86,North,354,0.0,1.0,87,0.00,,,0.00,weatherlink.com 1.10,2013-06-08 09:22:00,
2013-06-08 05:37:00,56.8,53.0,29.87,WNW,284,0.0,1.0,87,0.00,,,0.00,weatherlink.com 1.10,2013-06-08 09:37:00,
2013-06-08 05:52:00,56.8,53.0,29.87,WNW,303,0.0,1.0,88,0.00,,,0.00,weatherlink.com 1.10,2013-06-08 09:52:00,
2013-06-08 06:07:00,56.9,53.0,29.89,NW,304,0.0,0.0,88,0.00,,,0.00,weatherlink.com 1.10,2013-06-08 10:07:00,
2013-06-08 06:22:00,56.9,54.0,29.89,WNW,300,0.0,1.0,89,0.00,,,0.00,weatherlink.com 1.10,2013-06-08 10:22:00,
2013-06-08 06:37:00,56.9,53.0,29.89,NNW,328,0.0,0.0,88,0.00,,,0.00,weatherlink.com 1.10,2013-06-08 10:37:00,
2013-06-08 06:52:00,57.0,54.0,29.90,NNW,330,0.0,1.0,88,0.00,,,0.00,weatherlink.com 1.10,2013-06-08 10:52:00,
2013-06-08 07:07:00,57.2,54.0,29.90,North,353,0.0,1.0,89,0.00,,,0.00,weatherlink.com 1.10,2013-06-08 11:07:00,
2013-06-08 07:22:00,57.3,54.0,29.91,NNW,337,0.0,1.0,88,0.00,,,0.00,weatherlink.com 1.10,2013-06-08 11:22:00,
2013-06-08 07:37:00,57.7,54.0,29.90,NNW,338,0.0,0.0,88,0.00,,,0.00,weatherlink.com 1.10,2013-06-08 11:37:00,
2013-06-08 07:52:00,58.1,55.0,29.91,NW,308,0.0,1.0,88,0.00,,,0.00,weatherlink.com 1.10,2013-06-08 11:52:00,
2013-06-08 08:07:00,58.4,55.0,29.91,West,278,0.0,1.0,88,0.00,,,0.00,weatherlink.com 1.10,2013-06-08 12:07:00,
2013-06-08 08:22:00,58.4,55.0,29.92,WNW,284,0.0,2.0,87,0.00,,,0.00,weatherlink.com 1.10,2013-06-08 12:22:00,
2013-06-08 08:37:00,58.9,55.0,29.92,NNW,328,0.0,1.0,86,0.00,,,0.00,weatherlink.com 1.10,2013-06-08 12:37:00,
2013-06-08 08:53:00,59.8,55.0,29.93,North,356,0.0,1.0,85,0.00,,,0.00,weatherlink.com 1.10,2013-06-08 12:53:00,
2013-06-08 09:08:00,60.3,55.0,29.94,ESE,113,0.0,1.0,82,0.00,,,0.00,weatherlink.com 1.10,2013-06-08 13:08:00,
2013-06-08 09:23:00,60.8,55.0,29.95,SSW,205,0.0,0.0,80,0.00,,,0.00,weatherlink.com 1.10,2013-06-08 13:23:00,
2013-06-08 09:38:00,61.1,56.0,29.95,NW,312,0.0,1.0,82,0.00,,,0.00,weatherlink.com 1.10,2013-06-08 13:38:00,
2013-06-08 09:53:00,61.4,55.0,29.95,WNW,300,1.0,1.0,80,0.00,,,0.00,weatherlink.com 1.10,2013-06-08 13:53:00,
2013-06-08 10:08:00,61.1,54.0,29.95,NW,310,0.0,1.0,78,0.00,,,0.00,weatherlink.com 1.10,2013-06-08 14:08:00,
2013-06-08 10:23:00,61.2,54.0,29.95,NW,322,0.0,2.0,76,0.00,,,0.00,weatherlink.com 1.10,2013-06-08 14:23:00,
2013-06-08 10:38:00,62.3,54.0,29.96,NNW,342,1.0,1.0,74,0.00,,,0.00,weatherlink.com 1.10,2013-06-08 14:38:00,
2013-06-08 10:53:00,63.3,54.0,29.96,ENE,72,0.0,1.0,72,0.00,,,0.00,weatherlink.com 1.10,2013-06-08 14:53:00,
2013-06-08 11:08:00,63.4,55.0,29.97,SSE,165,0.0,0.0,74,0.00,,,0.00,weatherlink.com 1.10,2013-06-08 15:08:00,
2013-06-08 11:23:00,63.7,55.0,29.97,West,278,0.0,1.0,73,0.00,,,0.00,weatherlink.com 1.10,2013-06-08 15:23:00,
2013-06-08 11:38:00,64.6,54.0,29.97,North,5,0.0,3.0,69,0.00,,,0.00,weatherlink.com 1.10,2013-06-08 15:38:00,
2013-06-08 11:53:00,65.3,54.0,29.97,SW,231,0.0,2.0,68,0.00,,,0.00,weatherlink.com 1.10,2013-06-08 15:53:00,
2013-06-08 12:08:00,67.0,55.0,29.96,NW,315,0.0,1.0,66,0.00,,,0.00,weatherlink.com 1.10,2013-06-08 16:08:00,
2013-06-08 12:23:00,67.9,54.0,29.96,SE,124,0.0,4.0,62,0.00,,,0.00,weatherlink.com 1.10,2013-06-08 16:23:00,
2013-06-08 12:38:00,67.5,55.0,29.97,NNE,23,0.0,3.0,64,0.00,,,0.00,weatherlink.com 1.10,2013-06-08 16:38:00,
2013-06-08 12:53:00,67.6,54.0,29.98,WSW,242,0.0,2.0,62,0.00,,,0.00,weatherlink.com 1.10,2013-06-08 16:53:00,
2013-06-08 13:08:00,67.4,55.0,29.98,WSW,250,0.0,3.0,65,0.00,,,0.00,weatherlink.com 1.10,2013-06-08 17:08:00,
2013-06-08 13:23:00,67.4,54.0,29.97,WNW,293,0.0,5.0,63,0.00,,,0.00,weatherlink.com 1.10,2013-06-08 17:23:00,
2013-06-08 13:38:00,68.8,55.0,29.97,NW,314,0.0,3.0,62,0.00,,,0.00,weatherlink.com 1.10,2013-06-08 17:38:00,
2013-06-08 13:53:00,70.7,56.0,29.97,West,279,2.0,3.0,59,0.00,,,0.00,weatherlink.com 1.10,2013-06-08 17:53:00,
2013-06-08 14:08:00,70.8,55.0,29.98,WSW,243,0.0,3.0,58,0.00,,,0.00,weatherlink.com 1.10,2013-06-08 18:08:00,
2013-06-08 14:23:00,69.6,55.0,29.97,ESE,121,0.0,3.0,60,0.00,,,0.00,weatherlink.com 1.10,2013-06-08 18:23:00,
2013-06-08 14:38:00,71.2,56.0,29.97,West,259,0.0,3.0,60,0.00,,,0.00,weatherlink.com 1.10,2013-06-08 18:38:00,
2013-06-08 14:53:00,70.3,55.0,29.97,NNW,334,3.0,4.0,59,0.00,,,0.00,weatherlink.com 1.10,2013-06-08 18:53:00,
2013-06-08 15:08:00,69.4,54.0,29.97,West,276,0.0,5.0,59,0.00,,,0.00,weatherlink.com 1.10,2013-06-08 19:08:00,
2013-06-08 15:23:00,71.7,56.0,29.97,NW,308,2.0,6.0,58,0.00,,,0.00,weatherlink.com 1.10,2013-06-08 19:23:00,
2013-06-08 15:38:00,72.4,57.0,29.97,WSW,255,0.0,2.0,59,0.00,,,0.00,weatherlink.com 1.10,2013-06-08 19:38:00,
2013-06-08 15:53:00,73.5,57.0,29.98,WSW,244,1.0,3.0,56,0.00,,,0.00,weatherlink.com 1.10,2013-06-08 19:53:00,
2013-06-08 16:08:00,74.2,56.0,29.97,NW,321,0.0,3.0,53,0.00,,,0.00,weatherlink.com 1.10,2013-06-08 20:08:00,
2013-06-08 16:23:00,73.6,55.0,29.97,WNW,297,1.0,5.0,52,0.00,,,0.00,weatherlink.com 1.10,2013-06-08 20:23:00,
2013-06-08 16:38:00,73.2,55.0,29.97,NNW,327,0.0,5.0,53,0.00,,,0.00,weatherlink.com 1.10,2013-06-08 20:38:00,
2013-06-08 16:53:00,74.5,55.0,29.97,NNW,339,1.0,3.0,51,0.00,,,0.00,weatherlink.com 1.10,2013-06-08 20:53:00,
2013-06-08 17:08:00,74.4,57.0,29.97,SSW,204,0.0,2.0,54,0.00,,,0.00,weatherlink.com 1.10,2013-06-08 21:08:00,
2013-06-08 17:23:00,73.9,56.0,29.98,North,355,1.0,3.0,53,0.00,,,0.00,weatherlink.com 1.10,2013-06-08 21:23:00,
2013-06-08 17:39:00,74.5,57.0,29.98,WSW,252,1.0,2.0,54,0.00,,,0.00,weatherlink.com 1.10,2013-06-08 21:39:00,
2013-06-08 17:54:00,75.2,56.0,29.98,South,186,2.0,3.0,51,0.00,,,0.00,weatherlink.com 1.10,2013-06-08 21:54:00,
2013-06-08 18:09:00,75.2,56.0,29.97,North,1,0.0,2.0,52,0.00,,,0.00,weatherlink.com 1.10,2013-06-08 22:09:00,
2013-06-08 18:24:00,74.4,56.0,29.98,West,278,0.0,2.0,52,0.00,,,0.00,weatherlink.com 1.10,2013-06-08 22:24:00,
2013-06-08 18:39:00,75.1,56.0,29.98,South,190,0.0,1.0,51,0.00,,,0.00,weatherlink.com 1.10,2013-06-08 22:39:00,
2013-06-08 18:54:00,72.9,56.0,29.98,WSW,239,0.0,3.0,56,0.00,,,0.00,weatherlink.com 1.10,2013-06-08 22:54:00,
2013-06-08 19:09:00,71.8,56.0,29.98,WSW,257,0.0,1.0,58,0.00,,,0.00,weatherlink.com 1.10,2013-06-08 23:09:00,
2013-06-08 19:24:00,71.0,55.0,29.99,West,268,0.0,2.0,58,0.00,,,0.00,weatherlink.com 1.10,2013-06-08 23:24:00,
2013-06-08 19:39:00,70.9,56.0,29.99,West,276,0.0,3.0,59,0.00,,,0.00,weatherlink.com 1.10,2013-06-08 23:39:00,
2013-06-08 19:54:00,70.2,55.0,30.00,WNW,294,0.0,1.0,59,0.00,,,0.00,weatherlink.com 1.10,2013-06-08 23:54:00,
2013-06-08 20:09:00,69.5,55.0,30.01,West,274,0.0,1.0,60,0.00,,,0.00,weatherlink.com 1.10,2013-06-09 00:09:00,
2013-06-08 20:24:00,69.0,55.0,30.01,West,266,0.0,1.0,62,0.00,,,0.00,weatherlink.com 1.10,2013-06-09 00:24:00,
2013-06-08 20:39:00,68.4,55.0,30.01,NW,323,0.0,1.0,62,0.00,,,0.00,weatherlink.com 1.10,2013-06-09 00:39:00,
2013-06-08 20:54:00,67.7,55.0,30.01,WNW,298,0.0,1.0,64,0.00,,,0.00,weatherlink.com 1.10,2013-06-09 00:54:00,
2013-06-08 21:09:00,67.0,55.0,30.02,WNW,298,0.0,0.0,65,0.00,,,0.00,weatherlink.com 1.10,2013-06-09 01:09:00,
2013-06-08 21:24:00,66.3,55.0,30.02,WNW,300,0.0,0.0,68,0.00,,,0.00,weatherlink.com 1.10,2013-06-09 01:24:00,
2013-06-08 21:39:00,65.7,56.0,30.03,NW,325,0.0,0.0,70,0.00,,,0.00,weatherlink.com 1.10,2013-06-09 01:39:00,
2013-06-08 21:54:00,65.3,56.0,30.04,NW,325,0.0,0.0,71,0.00,,,0.00,weatherlink.com 1.10,2013-06-09 01:54:00,
2013-06-08 22:09:00,64.8,56.0,30.04,NW,325,0.0,0.0,72,0.00,,,0.00,weatherlink.com 1.10,2013-06-09 02:09:00,
2013-06-08 22:24:00,64.5,55.0,30.05,North,358,0.0,0.0,72,0.00,,,0.00,weatherlink.com 1.10,2013-06-09 02:24:00,
2013-06-08 22:39:00,64.3,55.0,30.06,North,358,0.0,0.0,73,0.00,,,0.00,weatherlink.com 1.10,2013-06-09 02:39:00,
2013-06-08 22:54:00,63.8,56.0,30.06,North,358,0.0,0.0,75,0.00,,,0.00,weatherlink.com 1.10,2013-06-09 02:54:00,
2013-06-08 23:09:00,63.1,56.0,30.06,ESE,119,0.0,0.0,77,0.00,,,0.00,weatherlink.com 1.10,2013-06-09 03:09:00,
2013-06-08 23:24:00,63.0,56.0,30.07,ESE,118,0.0,0.0,77,0.00,,,0.00,weatherlink.com 1.10,2013-06-09 03:24:00,
2013-06-08 23:39:00,62.8,56.0,30.06,ESE,118,0.0,0.0,79,0.00,,,0.00,weatherlink.com 1.10,2013-06-09 03:39:00,
2013-06-08 23:54:00,62.0,56.0,30.07,ESE,118,0.0,0.0,81,0.00,,,0.00,weatherlink.com 1.10,2013-06-09 03:54:00,